Location: Newark
(48.3453°N, 0.5589°E)
Time: 14:46:15
(UTC+00:00)

A-11 Canister half - Pass Details

Date: 15 December 2019
Orbit: 1517 x 1683 km, 47.2° (Epoch: 27 January)

Event Time Altitude Azimuth Distance (km) Brightness Sun altitude
Rises 16:22:59 0° 289° (WNW) 4,839 12.3 -3.5°
Reaches altitude 10° 16:26:11 10° 284° (WNW) 3,872 11.8 -4.0°
Maximum altitude 16:35:37 51° 213° (SSW) 2,016 10.1 -5.4°
Drops below altitude 10° 16:45:14 10° 141° (SE) 3,938 11.0 -6.8°
Sets 16:48:31 0° 137° (SE) 4,926 11.5 -7.2°
